TimeCST,TemperatureF,Dew PointF,Humidity,Sea Level PressureIn,VisibilityMPH,Wind Direction,Wind SpeedMPH,Gust SpeedMPH,PrecipitationIn,Events,Conditions,WindDirDegrees,DateUTC
12:53 AM,26.1,21.9,84,30.23,10.0,Calm,Calm,-,N/A,,Clear,0,2013-01-15 06:53:00
1:53 AM,25.0,21.9,88,30.22,10.0,Calm,Calm,-,N/A,,Clear,0,2013-01-15 07:53:00
2:53 AM,24.1,21.9,91,30.21,10.0,Calm,Calm,-,N/A,,Clear,0,2013-01-15 08:53:00
3:53 AM,25.0,23.0,92,30.21,10.0,Calm,Calm,-,N/A,,Clear,0,2013-01-15 09:53:00
5:53 AM,28.9,21.0,72,30.18,10.0,East,5.8,-,N/A,,Clear,90,2013-01-15 11:53:00
6:53 AM,30.9,19.0,61,30.15,10.0,East,6.9,-,N/A,,Overcast,80,2013-01-15 12:53:00
7:53 AM,30.0,21.0,69,30.25,6.0,WSW,3.5,-,0.00,Snow,Light Snow,250,2013-01-15 13:53:00
8:40 AM,30.0,23.0,75,30.28,1.8,WNW,5.8,-,0.00,Snow,Light Snow,290,2013-01-15 14:40:00
8:46 AM,30.0,24.1,79,30.28,0.8,NW,6.9,-,0.00,Snow,Light Snow,310,2013-01-15 14:46:00
8:53 AM,30.0,24.1,79,30.30,0.8,WNW,5.8,-,0.00,Snow,Light Snow,300,2013-01-15 14:53:00
9:06 AM,28.9,25.0,85,30.28,1.8,NNW,6.9,-,0.00,Snow,Light Snow,330,2013-01-15 15:06:00
9:13 AM,30.0,25.0,82,30.28,2.5,NNW,5.8,-,0.00,Snow,Light Snow,340,2013-01-15 15:13:00
9:20 AM,30.0,25.0,82,30.28,1.8,NNW,5.8,-,0.00,Snow,Light Snow,340,2013-01-15 15:20:00
9:50 AM,30.2,24.8,80,30.26,3.0,NNE,5.8,-,0.00,Snow,Light Snow,20,2013-01-15 15:50:00
9:53 AM,30.0,25.0,82,30.26,4.0,North,4.6,-,0.00,Snow,Light Snow,10,2013-01-15 15:53:00
10:10 AM,30.9,25.0,79,30.25,1.8,NNE,9.2,-,0.00,Snow,Light Snow,20,2013-01-15 16:10:00
10:25 AM,30.9,26.1,82,30.24,2.5,NE,9.2,-,0.00,Snow,Light Snow,50,2013-01-15 16:25:00
10:33 AM,32.0,26.1,79,30.24,4.0,ENE,6.9,-,0.00,Snow,Light Snow,60,2013-01-15 16:33:00
10:53 AM,32.0,26.1,79,30.24,5.0,ENE,9.2,-,0.00,Snow,Light Snow,60,2013-01-15 16:53:00
11:53 AM,33.1,27.0,78,30.18,10.0,ENE,12.7,-,0.00,,Overcast,60,2013-01-15 17:53:00
12:53 PM,35.1,28.9,78,30.15,10.0,East,6.9,-,N/A,,Overcast,90,2013-01-15 18:53:00
1:09 PM,35.1,28.9,78,30.13,10.0,East,6.9,-,N/A,,Overcast,90,2013-01-15 19:09:00
1:42 PM,35.1,28.9,78,30.13,10.0,East,8.1,-,N/A,,Overcast,80,2013-01-15 19:42:00
1:53 PM,36.0,28.9,76,30.14,10.0,East,5.8,-,N/A,,Overcast,80,2013-01-15 19:53:00
2:53 PM,36.0,30.0,79,30.14,3.0,NE,4.6,-,N/A,,Haze,40,2013-01-15 20:53:00
3:53 PM,36.0,30.0,79,30.16,10.0,North,5.8,-,N/A,,Overcast,10,2013-01-15 21:53:00
4:06 PM,36.0,30.0,79,30.14,10.0,NNE,5.8,-,N/A,,Overcast,30,2013-01-15 22:06:00
4:22 PM,36.0,30.0,79,30.15,10.0,Calm,Calm,-,N/A,,Overcast,0,2013-01-15 22:22:00
4:53 PM,36.0,28.9,76,30.17,10.0,NNE,5.8,-,N/A,,Overcast,30,2013-01-15 22:53:00
5:53 PM,36.0,28.0,73,30.17,10.0,North,3.5,-,N/A,,Overcast,350,2013-01-15 23:53:00
6:41 PM,36.0,28.0,73,30.18,10.0,North,6.9,-,N/A,,Overcast,360,2013-01-16 00:41:00
6:53 PM,36.0,28.0,73,30.19,10.0,North,5.8,-,N/A,,Overcast,10,2013-01-16 00:53:00
7:53 PM,36.0,28.0,73,30.20,10.0,North,4.6,-,N/A,,Overcast,360,2013-01-16 01:53:00
8:53 PM,36.0,28.0,73,30.19,10.0,North,3.5,-,N/A,,Overcast,360,2013-01-16 02:53:00
9:53 PM,36.0,28.9,76,30.19,10.0,NW,4.6,-,N/A,,Overcast,310,2013-01-16 03:53:00
10:53 PM,36.0,28.9,76,30.19,10.0,WNW,4.6,-,N/A,,Overcast,300,2013-01-16 04:53:00
11:53 PM,36.0,28.9,76,30.16,10.0,NNW,3.5,-,N/A,,Overcast,340,2013-01-16 05:53:00